Date String (YYYY-MM-DD hh:mm:ss) UTC,Instrument flags,Ambient pressure (hPa),Sample flow (lpm),Bypass flow (lpm),Sample temperature (°C),Ambient temperature (°C),ASC tube jacket temperature (°C),LED temperature (°C),Box temperature (°C),Sample RH (%),Span deviation,Mass concentration (μg/m³),Mass concentration (μg/m³),Mass concentration (μg/m³)
DateTimeUTC,F1_M11,P_M11,Q1_M11,Q2_M11,T1_M11,T2_M11,T3_M11,T4_M11,T5_M11,U1_M11,ZSPAN_M11,X0_M11,X2_M11,X1_M11
2021-09-25 18:00:00,,0829.5,5.02,0.00,29.7,28.7,00.0,38.6,31.5,15.2,0002.0,0017.18,0007.77,0006.41
2021-09-25 18:01:00,,0829.6,4.99,0.00,29.7,28.8,00.0,38.6,31.6,14.0,0002.0,0016.97,0007.72,0006.35
2021-09-25 18:02:00,,0829.6,5.01,0.00,29.7,28.5,00.0,38.7,31.5,14.0,0002.1,0017.47,0007.65,0006.30
2021-09-25 18:03:00,,0829.6,4.99,0.00,29.6,26.7,00.0,38.6,31.0,14.1,0002.0,0017.29,0007.64,0006.26
2021-09-25 18:04:00,,0829.6,5.00,0.00,29.5,26.0,00.0,38.6,30.8,14.6,0002.0,0017.69,0007.61,0006.24
2021-09-25 18:05:00,,0829.5,5.00,0.00,29.4,26.5,00.0,38.6,30.9,14.5,0001.9,0018.26,0007.59,0006.23
2021-09-25 18:06:00,,0829.5,5.00,0.00,29.4,26.9,00.0,38.6,31.0,14.6,0001.9,0018.81,0007.64,0006.20
2021-09-25 18:07:00,,0829.5,5.01,0.00,29.4,27.3,00.0,38.5,31.1,14.5,0002.0,0019.30,0007.59,0006.18
2021-09-25 18:08:00,,0829.5,5.00,0.00,29.4,27.7,00.0,38.5,31.2,14.7,0001.9,0019.24,0007.51,0006.15
2021-09-25 18:09:00,,0829.5,5.00,0.00,29.5,28.0,00.0,38.5,31.3,14.9,0001.8,0019.00,0007.36,0006.12
2021-09-25 18:10:00,,0829.5,5.01,0.00,29.5,28.3,00.0,38.5,31.4,15.1,0002.3,0019.32,0007.33,0006.09
2021-09-25 18:11:00,,0829.5,4.99,0.00,29.6,28.5,00.0,38.5,31.4,15.2,0002.4,0020.22,0007.37,0006.09
2021-09-25 18:12:00,,0829.5,5.00,0.00,29.6,28.7,00.0,38.6,31.5,15.0,0002.5,0020.94,0007.41,0006.13
2021-09-25 18:13:00,,0829.5,5.02,0.00,29.7,28.6,00.0,38.6,31.5,14.0,0002.0,0020.68,0007.40,0006.13
2021-09-25 18:14:00,,0829.5,4.99,0.00,29.6,26.9,00.0,38.6,31.0,12.5,0002.0,0021.13,0007.36,0006.12
2021-09-25 18:15:00,,0829.4,5.00,0.00,29.4,25.9,00.0,38.6,30.7,12.8,0001.7,0020.79,0007.38,0006.12
2021-09-25 18:16:00,,0829.4,4.99,0.00,29.4,26.3,00.0,38.5,30.8,12.9,0001.4,0020.26,0007.35,0006.12
2021-09-25 18:17:00,,0829.4,5.00,0.00,29.3,26.7,00.0,38.5,30.9,13.0,0001.5,0020.82,0007.26,0006.09
2021-09-25 18:18:00,,0829.4,5.01,0.00,29.3,27.1,00.0,38.5,31.0,12.4,0001.6,0019.96,0007.21,0006.08
2021-09-25 18:19:00,,0829.2,4.99,0.00,29.4,27.5,00.0,38.5,31.1,12.0,0001.6,0019.70,0007.18,0006.05
2021-09-25 18:20:00,,0829.2,5.00,0.00,29.4,27.9,00.0,38.5,31.2,11.9,0001.3,0018.87,0007.14,0006.03
2021-09-25 18:21:00,,0829.2,5.00,0.00,29.4,28.1,00.0,38.5,31.3,11.9,0000.8,0017.98,0007.07,0005.99
2021-09-25 18:22:00,,0829.2,5.00,0.00,29.5,28.4,00.0,38.5,31.3,11.7,0000.7,0016.59,0006.99,0005.94
2021-09-25 18:23:00,,0829.3,5.01,0.00,29.6,28.6,00.0,38.5,31.4,11.7,0001.0,0015.28,0006.87,0005.89
2021-09-25 18:24:00,,0829.3,4.99,0.00,29.6,28.1,00.0,38.5,31.3,11.5,0001.2,0014.75,0006.83,0005.86
2021-09-25 18:25:00,,0829.2,5.01,0.00,29.4,26.3,00.0,38.5,30.8,11.7,0000.7,0014.30,0006.78,0005.85
2021-09-25 18:26:00,,0829.3,5.01,0.00,29.3,25.9,00.0,38.5,30.7,11.9,0000.7,0013.96,0006.74,0005.85
2021-09-25 18:27:00,,0829.3,5.00,0.00,29.3,26.3,00.0,38.4,30.8,12.1,0001.0,0014.04,0006.72,0005.83
2021-09-25 18:28:00,,0829.2,4.99,0.00,29.3,26.8,00.0,38.4,30.9,12.2,0001.1,0012.88,0006.68,0005.83
2021-09-25 18:29:00,,0829.3,5.00,0.00,29.3,27.2,00.0,38.4,31.0,12.4,0001.1,0012.41,0006.63,0005.81
2021-09-25 18:30:00,,0829.3,5.00,0.00,29.3,27.6,00.0,38.4,31.1,12.5,0001.5,0012.23,0006.61,0005.79
2021-09-25 18:31:00,,0829.2,5.00,0.00,29.3,27.9,00.0,38.4,31.2,12.6,0001.6,0012.25,0006.68,0005.79
2021-09-25 18:32:00,,0829.3,5.00,0.00,29.4,28.2,00.0,38.4,31.3,13.0,0001.8,0012.77,0006.72,0005.79
2021-09-25 18:33:00,,0829.3,5.01,0.00,29.5,28.4,00.0,38.4,31.3,12.1,0002.0,0012.98,0006.67,0005.77
2021-09-25 18:34:00,,0829.2,5.01,0.00,29.5,28.1,00.0,38.4,31.2,12.0,0001.9,0013.43,0006.72,0005.76
2021-09-25 18:35:00,,0829.1,4.99,0.00,29.4,26.4,00.0,38.4,30.8,12.0,0001.7,0013.44,0006.68,0005.74
2021-09-25 18:36:00,,0829.1,5.01,0.00,29.2,25.8,00.0,38.4,30.5,12.0,0002.4,0013.12,0006.62,0005.72
2021-09-25 18:37:00,,0829.1,5.00,0.00,29.2,26.2,00.0,38.4,30.7,11.8,0003.0,0012.84,0006.57,0005.68
2021-09-25 18:38:00,,0829.0,5.00,0.00,29.2,26.6,00.0,38.3,30.8,11.7,0003.2,0013.12,0006.50,0005.64
2021-09-25 18:39:00,,0829.0,5.01,0.00,29.2,27.1,00.0,38.3,30.9,11.8,0002.7,0013.31,0006.43,0005.58
2021-09-25 18:40:00,,0829.0,4.99,0.00,29.2,27.5,00.0,38.3,31.0,12.0,0002.7,0013.27,0006.41,0005.52
2021-09-25 18:41:00,,0829.0,5.01,0.00,29.2,27.8,00.0,38.3,31.1,11.7,0002.0,0013.00,0006.40,0005.48
2021-09-25 18:42:00,,0829.0,4.99,0.00,29.3,28.1,00.0,38.3,31.2,11.7,0001.5,0013.51,0006.30,0005.44
2021-09-25 18:43:00,,0829.0,5.00,0.00,29.4,28.3,00.0,38.3,31.2,11.6,0002.1,0013.40,0006.20,0005.38
2021-09-25 18:44:00,,0828.9,5.00,0.00,29.4,28.5,00.0,38.3,31.3,11.8,0002.2,0012.83,0006.14,0005.34
2021-09-25 18:45:00,,0829.0,4.98,0.00,29.5,28.7,00.0,38.4,31.4,11.9,0002.0,0012.41,0006.05,0005.30
2021-09-25 18:46:00,,0828.9,5.01,0.00,29.5,27.9,00.0,38.4,31.2,11.7,0001.9,0012.59,0006.01,0005.26
2021-09-25 18:47:00,,0828.9,4.99,0.00,29.4,26.2,00.0,38.4,30.8,11.7,0001.8,0012.86,0006.00,0005.21
2021-09-25 18:48:00,,0829.0,5.01,0.00,29.2,26.0,00.0,38.3,30.6,11.7,0001.7,0013.18,0006.02,0005.19
2021-09-25 18:49:00,,0829.2,5.00,0.00,29.2,26.4,00.0,38.3,30.7,11.9,0001.6,0012.69,0006.00,0005.16
2021-09-25 18:50:00,,0829.2,4.99,0.00,29.2,26.8,00.0,38.3,30.8,11.7,0001.9,0012.23,0005.98,0005.14
2021-09-25 18:51:00,,0829.3,5.01,0.00,29.2,27.3,00.0,38.3,30.9,11.7,0001.8,0012.07,0005.95,0005.15
2021-09-25 18:52:00,,0828.7,5.01,0.00,29.2,27.7,00.0,38.3,31.0,11.6,0001.9,0012.23,0005.92,0005.13
2021-09-25 18:53:00,,0829.0,4.99,0.00,29.3,27.9,00.0,38.3,31.1,11.7,0002.3,0011.96,0005.90,0005.11
2021-09-25 18:54:00,,0828.9,5.01,0.00,29.3,28.2,00.0,38.3,31.2,11.7,0002.4,0011.46,0005.86,0005.09
2021-09-25 18:55:00,,0829.2,5.00,0.00,29.4,28.4,00.0,38.3,31.3,12.3,0002.3,0011.64,0005.84,0005.08
2021-09-25 18:56:00,,0829.0,5.00,0.00,29.5,28.6,00.0,38.3,31.4,12.5,0002.2,0012.25,0005.86,0005.07
2021-09-25 18:57:00,,0829.2,5.01,0.00,29.5,28.2,00.0,38.4,31.3,12.4,0002.5,0012.68,0005.85,0005.06
2021-09-25 18:58:00,,0828.9,5.00,0.00,29.4,26.5,00.0,38.4,30.8,12.0,0002.9,0012.57,0005.85,0005.06
2021-09-25 18:59:00,,0828.7,5.00,0.00,29.3,26.0,00.0,38.3,30.6,12.3,0003.0,0012.95,0005.86,0005.07
